Regional Weather Roundup
Issued by NWS

Home | Current Version | Previous Version | Text Only | Print | Product List | Glossary On
Versions: 1 2 3 4 5 6 7 8 9 10 11 12 13 14 15 16 17 18 19 20 21 22 23 24 25 26 27
000
ASUS44 KLIX 160513
RWRLA
LOUISIANA WEATHER ROUNDUP
NATIONAL WEATHER SERVICE NEW ORLEANS LA
1100 PM CST FRI DEC 15 2017

NOTE: "FAIR" INDICATES FEW OR NO CLOUDS BELOW 12,000 FEET WITH NO
      SIGNIFICANT WEATHER AND/OR OBSTRUCTIONS TO VISIBILITY.
      SKY/WX - SKY CONDITION AND SIGNIFICANT WEATHER.
      TMP - AIR TEMPERATURE.    DP   - DEWPOINT TEMPERATURE.
      RH  - RELATIVE HUMIDITY.  PRES - PRESSURE.
      HX  - HEAT INDEX.         WCI  - WIND CHILL INDEX.

*  THESE STATIONS ARE NOT NWS OR FAA STATIONS AND ARE NOT UNDER
   NWS QUALITY CONTROL.

LAZ040-048-061>063-065-066-069-160600-
SOUTHEAST LOUISIANA

CITY           SKY/WX    TMP DP  RH WIND       PRES   REMARKS
N.O. INTL ARPT CLOUDY    47  35  63 N10       30.28R
N.O. LAKEFRONT CLOUDY    47  35  63 N13       30.29S
N.O. DOWNTOWN* CLOUDY    47  35  63 N8        30.28S
RESERVE*       CLOUDY    47  34  58 NE7       30.28F
SLIDELL        CLOUDY    43  35  73 NW5       30.29S
BATON ROUGE    CLOUDY    39  34  82 CALM      30.29S
BOOTHVILLE     PTCLDY    50  41  71 N9        30.26S
BELLE CHASSE   CLOUDY    46  37  71 NE7       30.27S
BOGALUSA*      FAIR      40  36  83 MISG      30.29S
GALLIANO*      CLOUDY    46  37  69 N5        30.27R
NEW ROADS*     FAIR      37  34  90 CALM      30.30S
GONZALES*      FAIR      45  34  67 N3        30.28F
HAMMOND*       CLOUDY    41  34  75 CALM      30.29F
HOUMA*         CLOUDY    45  37  72 N7        30.28R
PORT FOURCHON* NOT AVBL

$$

LAZ041-044-053-054-160600-
SOUTHWEST LOUISIANA

CITY           SKY/WX    TMP DP  RH WIND       PRES   REMARKS
LAKE CHARLES   CLOUDY    43  40  89 CALM      30.29S
LAFAYETTE      CLOUDY    42  35  76 NE3       30.29S
PATTERSON      CLOUDY    46  37  71 NE7       30.28S
SALT POINT       N/A     46  37  71 VRB3      30.27R
NEW IBERIA     MOCLDY    45  34  65 N5        30.30R
CHENAULT AIRPK MOCLDY    42  38  84 CALM      30.29F

$$

LAZ027-028-160600-
CENTRAL LOUISIANA

CITY           SKY/WX    TMP DP  RH WIND       PRES   REMARKS
FORT POLK      FOG       37  36  96 CALM      30.28R VSB 1/4
ALEXANDRIA INT CLOUDY    36  33  89 CALM      30.27S
ALEXANDRIA     CLOUDY    31  30  96 CALM      30.28S

$$

LAZ001-002-160600-
NORTHWEST LOUISIANA

CITY           SKY/WX    TMP DP  RH WIND       PRES   REMARKS
SHREVEPORT     CLOUDY    36  31  82 CALM      30.24S
BARKSDALE AFB  CLOUDY    31  27  85 SE3       30.25R
DTN SHREVEPORT CLOUDY    40  34  79 NW3       30.25S

$$

LAZ014-016-160600-
NORTHEAST LOUISIANA

CITY           SKY/WX    TMP DP  RH WIND       PRES   REMARKS
MONROE         CLOUDY    31  28  89 CALM      30.28S
TALLULAH       PTCLDY    29  26  89 CALM      30.29R

$$





USA.gov is the U.S. government's official web portal to all federal, state and local government web resources and services.